COSMOS 2520 (42907 NORAD) Tracking and Keplerian Element Data

This shows tracking and keplerian element data for the satellite.

Feedback or suggestion? Click here.




ElementValue
Catalog42907
NameCOSMOS 2520
Epoch Orbit461
Epoch Day319.9924634
Epoch Year2018
RAAN74.4697
Inclination0.0435
Eccentricity0.0002955
Argument of Perigee294.0034
Mean Anonmoly88.8588
Mean Motion1.00273209
Decay Rate1.4E-06
L11 42907U 17046A 18319.99246340 .00000140 00000-0 00000+0 0 9993
L22 42907 0.0435 74.4697 0002955 294.0034 88.8588 1.00273209 4616

Live tracking and technical data element details for COSMOS 2520 (NORAD 42907). COSMOS 2520 can be tracked NOW for your location showing map with azimuth and elevation plus other details from your city location.

Track the satellite on the map from your city or location and see movement details for azimuth, elevation, latitude, longitude, range, height, and movement on the map or in text.







IsCatalogInMostPopularTable: catalog: 42907, numindb: 142
Update: records affected: 1



GetName: 42907 COSMOS 2520

Hit Count: updated at: Fri, 16 Nov 2018 10:23:29 GMT